Ashtabula, OH

4:41 PM EDT on May 29, 2017 (GMT -0400)
Ashtabula County

Weather History for KHZY - April, 2014

Change the Weather History Date:

Friday, April 18, 2014

  Actual Average (KGKJ) Record (KGKJ)
Temperature  
Mean Temperature 52 °F -  
Max Temperature 62 °F 59 °F 84 °F (1976)
Min Temperature 43 °F 34 °F 20 °F (1980)
Degree Days  
Heating Degree Days 13    
Growing Degree Days 2 (Base 50)    
Moisture  
Dew Point 33 °F    
Average Humidity 51    
Maximum Humidity 80    
Minimum Humidity 38    
Precipitation  
Precipitation 0.00 in - - ()
Sea Level Pressure  
Sea Level Pressure 30.29 in    
Wind  
Wind Speed 9 mph (SSW)    
Max Wind Speed 15 mph    
Max Gust Speed 18 mph    
Visibility 10 miles    
Events      
Averages and records for this station are not official NWS values.
T = Trace of Precipitation, MM = Missing Value Source: NWS Daily Summary

Daily Weather History Graph

Daily Weather History Graph

Search for Another Location

Airport or City:

Trip Planner

Search our weather history database for the weather conditions in past years. The results will help you decide how hot, cold, wet, or windy it might be!

Date:

Astronomy

Apr. 18, 2014 Rise Set
Actual Time 6:37 AM EDT 8:06 PM EDT
Civil Twilight 6:08 AM EDT 8:36 PM EDT
Nautical Twilight 5:33 AM EDT 9:11 PM EDT
Astronomical Twilight 4:56 AM EDT 9:48 PM EDT
Moon 11:52 PM EDT (4/18) 8:56 AM EDT (4/18)
Length of Visible Light 14h 27m
Length of Day
13h 28m
Waning Gibbous, 87% of the Moon is Illuminated
Apr 18
Waning Gibbous
Apr 22
Last Quarter
Apr 29
New
May 6
First Quarter
May 14
Full

Hourly Weather History & Observations

Time (EDT) Temp. Windchill Dew Point Humidity Pressure Visibility Wind Dir Wind Speed Gust Speed Precip Events Conditions
12:53 AM 50.0 °F - 28.0 °F 43% 30.33 in 10.0 mi SSE 10.4 mph - N/A   Clear
1:53 AM 48.9 °F - 27.0 °F 43% 30.32 in 10.0 mi SSE 12.7 mph - N/A   Clear
2:53 AM 46.9 °F - 27.0 °F 46% 30.30 in 10.0 mi SSE 10.4 mph - N/A   Clear
3:53 AM 46.0 °F 41.4 °F 27.0 °F 47% 30.30 in 10.0 mi SSE 9.2 mph - N/A   Clear
4:53 AM 45.0 °F 39.7 °F 27.0 °F 49% 30.29 in 10.0 mi SSE 10.4 mph - N/A   Clear
5:53 AM 44.1 °F 38.1 °F 27.0 °F 51% 30.30 in 10.0 mi SSE 11.5 mph - N/A   Clear
6:53 AM 43.0 °F 36.4 °F 27.0 °F 53% 30.30 in 10.0 mi SSE 12.7 mph - N/A   Clear
8:53 AM 46.9 °F - 28.0 °F 48% 30.30 in 10.0 mi South 9.2 mph - N/A   Clear
9:53 AM 50.0 °F - 28.9 °F 44% 30.30 in 10.0 mi SSW 10.4 mph - N/A   Clear
10:53 AM 55.0 °F - 30.0 °F 38% 30.30 in 10.0 mi SSW 8.1 mph - N/A   Clear
11:53 AM 57.0 °F - 32.0 °F 39% 30.28 in 10.0 mi SSW 5.8 mph - N/A   Clear
12:53 PM 60.1 °F - 34.0 °F 38% 30.27 in 10.0 mi Variable 4.6 mph - N/A   Clear
1:53 PM 57.0 °F - 37.0 °F 47% 30.27 in 10.0 mi NW 8.1 mph - N/A   Clear
2:53 PM 61.0 °F - 37.9 °F 42% 30.26 in 10.0 mi NNW 9.2 mph - N/A   Clear
3:53 PM 61.0 °F - 39.0 °F 44% 30.25 in 10.0 mi NW 8.1 mph - N/A   Mostly Cloudy
4:53 PM 61.0 °F - 39.0 °F 44% 30.26 in 10.0 mi West 15.0 mph - N/A   Overcast
5:53 PM 60.1 °F - 39.0 °F 46% 30.25 in 10.0 mi WNW 8.1 mph 18.4 mph N/A   Scattered Clouds
6:53 PM 55.9 °F - 39.0 °F 53% 30.26 in 10.0 mi NNW 10.4 mph - N/A   Clear
7:53 PM 48.0 °F - 37.9 °F 68% 30.27 in 10.0 mi North 5.8 mph - N/A   Clear
8:53 PM 46.9 °F - 39.9 °F 77% 30.28 in 10.0 mi NNE 3.5 mph - N/A   Mostly Cloudy
9:53 PM 46.9 °F - 39.9 °F 77% 30.29 in 10.0 mi Calm Calm - N/A   Mostly Cloudy
11:53 PM 45.0 °F 43.5 °F 39.0 °F 80% 30.30 in 10.0 mi NNE 3.5 mph - N/A   Scattered Clouds